FW7711 Weather Reports


Display with metric or nautical units.
time (UTC)temp
F
wind
direction
speed
MPH
gust
MPH
rain 1hr
in
rain 24hr
in
rain mn
in
humidity
%
barometer
mb
20260506110058 29 0.0 0.0 0.00 0.00 0.00 82 1015.9
20260506104605 29 0.0 0.0 0.00 0.00 0.00 81 1015.9
20260506103106 29 0.0 0.0 0.00 0.00 0.00 80 1015.8
20260506101557 29 0.0 0.0 0.00 0.00 0.00 79 1015.6
20260506100105 30 0.0 0.0 0.00 0.00 0.00 78 1015.3
20260506094559 30 0.0 0.0 0.00 0.00 0.00 78 1015.4
20260506093101 30 0.0 0.0 0.00 0.00 0.00 77 1015.3
20260506091558 30 0.0 0.0 0.00 0.00 0.00 76 1015.4
20260506090058 31 0.0 0.0 0.00 0.00 0.00 74 1015.5
20260506084605 31 0.0 0.0 0.00 0.00 0.00 73 1015.2
20260506083118 32 0.0 0.0 0.00 0.00 0.00 72 1015.0
20260506081558 32 0.0 0.0 0.00 0.00 0.00 71 1015.1
20260506073059 34 0.0 0.0 0.00 0.00 0.00 68 1014.7
20260506071559 34 0.0 0.0 0.00 0.00 0.00 66 1014.6
20260506070126 35 0.0 0.0 0.00 0.00 0.00 65 1014.7
20260506061600 37 0.0 0.0 0.00 0.00 0.00 63 1014.6
20260506050109 38 0.0 0.0 0.00 0.00 0.00 60 1014.2
20260506044558 39 0.0 0.0 0.00 0.00 0.00 60 1014.1
20260506043104 40 0.0 0.0 0.00 0.00 0.00 58 1014.0
20260506041626 40 0.0 0.0 0.00 0.00 0.00 57 1014.0
20260506040106 41 0.0 0.0 0.00 0.00 0.00 56 1014.0
20260506034601 41 0.0 0.0 0.00 0.00 0.00 56 1014.0
20260506033059 42 0.0 0.0 0.00 0.00 0.00 54 1013.8
20260506031601 42 0.0 0.0 0.00 0.00 0.00 55 1013.7
20260506024606 43 0.0 0.0 0.00 0.00 0.00 52 1013.2
20260506023057 43 0.0 0.0 0.00 0.00 0.00 52 1012.9
20260506021558 44 0.0 0.0 0.00 0.00 0.00 51 1012.8
20260506020111 45 0.0 0.0 0.00 0.00 0.00 49 1012.4
20260506014612 46 0.0 0.0 0.00 0.00 0.00 48 1012.1
20260506013057 46 0.0 0.0 0.00 0.00 0.00 46 1012.1
20260506011623 47 0.0 0.0 0.00 0.00 0.00 45 1012.0
20260506010100 48 0.0 0.0 0.00 0.00 0.00 45 1011.8
20260506004605 48 0.0 0.0 0.00 0.00 0.00 43 1011.6
20260506003058 49 0.0 0.0 0.00 0.00 0.00 44 1011.5
20260506001605 49 0.0 0.0 0.00 0.00 0.00 43 1011.3
20260506000122 50 0.0 0.0 0.00 0.00 0.00 43 1011.3
20260505234604 50 0.0 0.0 0.00 0.00 0.00 40 1011.2
20260505233103 51 0.0 0.0 0.00 0.00 0.00 41 1011.1
20260505231614 52 0.0 0.0 0.00 0.00 0.00 40 1011.1
20260505230110 51 0.0 0.0 0.00 0.00 0.00 42 1011.1
20260505224601 51 0.0 0.0 0.00 0.00 0.00 43 1011.1
20260505223103 51 0.0 0.0 0.00 0.00 0.00 42 1011.1
20260505221604 51 0.0 0.0 0.00 0.00 0.00 42 1011.1
20260505220100 51 0.0 0.0 0.00 0.00 0.00 43 1011.1
20260505214557 51 0.0 0.0 0.00 0.00 0.00 41 1011.2
20260505213059 51 0.0 0.0 0.00 0.00 0.00 41 1011.3
20260505211558 51 0.0 0.0 0.00 0.00 0.00 42 1011.3
20260505210057 51 0.0 0.0 0.00 0.00 0.00 42 1011.2
20260505204602 51 0.0 0.0 0.00 0.00 0.00 42 1011.4
20260505203103 51 0.0 0.0 0.00 0.00 0.00 44 1011.5
20260505201557 51 0.0 0.0 0.00 0.00 0.00 43 1011.5
20260505200100 51 0.0 0.0 0.00 0.00 0.00 45 1011.5
20260505194618 52 0.0 0.0 0.00 0.00 0.00 41 1011.4
20260505193106 53 0.0 0.0 0.00 0.00 0.00 41 1011.4
20260505191609 52 0.0 0.0 0.00 0.00 0.00 45 1011.4
20260505190059 52 0.0 0.0 0.00 0.00 0.00 44 1011.4
20260505184558 52 0.0 0.0 0.00 0.00 0.00 42 1011.6
20260505183057 52 0.0 0.0 0.00 0.00 0.00 43 1011.5
20260505181558 52 0.0 0.0 0.00 0.00 0.00 39 1011.6
20260505180105 51 0.0 0.0 0.00 0.00 0.00 43 1011.6
20260505174559 51 0.0 0.0 0.00 0.00 0.00 41 1011.6
20260505173114 51 0.0 0.0 0.00 0.00 0.00 45 1011.5
20260505171625 50 0.0 0.0 0.00 0.00 0.00 43 1011.7
20260505170059 49 0.0 0.0 0.00 0.00 0.00 43 1011.7
20260505164606 50 0.0 0.0 0.00 0.00 0.00 42 1011.7
20260505163057 51 0.0 0.0 0.00 0.00 0.00 42 1011.6
20260505161605 49 0.0 0.0 0.00 0.00 0.00 45 1011.8
20260505160106 49 0.0 0.0 0.00 0.00 0.00 45 1011.7
20260505153057 51 0.0 0.0 0.00 0.00 0.00 44 1011.6
20260505151601 49 0.0 0.0 0.00 0.00 0.00 45 1011.6
20260505150116 48 0.0 0.0 0.00 0.00 0.00 50 1011.5
20260505130104 42 0.0 0.0 0.00 0.00 0.00 54 1010.9
20260505124600 40 0.0 0.0 0.00 0.00 0.00 56 1010.7
20260505123104 39 0.0 0.0 0.00 0.00 0.00 60 1010.4
20260505121629 38 0.0 0.0 0.00 0.00 0.00 61 1010.0
20260505120058 37 0.0 0.0 0.00 0.00 0.00 66 1009.9
20260505114603 37 0.0 0.0 0.00 0.00 0.00 67 1009.8
20260505113105 37 0.0 0.0 0.00 0.00 0.00 70 1009.4
20260505111610 37 0.0 0.0 0.00 0.00 0.00 71 1009.3